Location: Geroldsau
(48.7259°N, 8.2466°E)
Time: 10:04:10
(UTC+00:00)

CZ-3B R/B - Pass Details

Date: 20 June 2021
Orbit: 337 x 17333 km, 54.9° (Epoch: 27 July)

Event Time Altitude Azimuth Distance (km) Brightness Sun altitude
Rises 00:38:54 0° 281° (W) 8,231 7.7 -16.1°
Reaches altitude 10° 00:46:50 10° 287° (WNW) 5,055 6.7 -15.7°
Maximum altitude 00:56:34 48° 0° (N) 1,057 3.7 -15.2°
Drops below altitude 10° 00:59:47 10° 78° (ENE) 1,706 4.8 -15.0°
Sets 01:01:11 0° 86° (E) 2,346 5.4 -14.9°
